Aérodrome :
LOGIN :

S'inscrire | Disclaimer

   EN    FR    IT 

 










Légende :    VFR   VFR Marginal   IFR   IFR Intensif   IFR Très Intensif
Visi : 
Plafond : 
>= 8 km
>= 3000ft
5 à 8 km
1000 à 3000 ft
1500m à 5 km
500 à 1000 ft
800 à 1500m
200 à 500 ft
< 800m
< 200 ft
Symboles :   Orages  Brouillard  Fortes neiges  Fortes précipitations  Vent > 20 kt
SIGMETs :   Divers  Orages  Givrage  Turbulence  Onde Orograph.  Cendres Volcan.







- Altitude de l'aérodrome : 726 ft
- Code IATA : DIJ
- Voir les cartes d'approche


LFSD - Dijon

DERNIER METAR :
  • 161730Z AUTO 34008KT CAVOK 28/09 Q1011

METARs EXPIRÉS :
  • 161700Z AUTO 32008KT 300V360 CAVOK 29/08 Q1011
  • 161630Z AUTO VRB02KT 9999 ///CB 30/12 Q1011
  • 161600Z AUTO 01005KT CAVOK 29/12 Q1011
  • 161530Z AUTO VRB02KT CAVOK 29/13 Q1011
  • 161500Z AUTO 34005KT 260V020 CAVOK 29/13 Q1011

Prévision TAF périmée.
Pas de NOTAMs connus pour ce terrain.



MET'MAP, la Météo Aéronautique d'un coup d'oeil ! - Copyright ORBIFLY Décembre 2007 - Disclaimer

ORBIFLY MET'MAP TEAM :

Programmation & Développement : Alexandra Zaïnal
Conception & Développement : Baudouin d'Aumeries
Co-Programmation & Développement : Marc-Olivier Méhu
Soutien technique & logistique : Manuel Goepfert

Contact : metmap@orbifly.com




SOURCES & CREDITS :

   NOAA